Victoria, British Columbia

1:35 AM PDT on May 27, 2017 (GMT -0700)
Victoria International

Weather History for CYYJ - November, 2011

Change the Weather History Date:

Friday, November 4, 2011

  Actual Average Record
Temperature  
Mean Temperature 40 °F -  
Max Temperature 49 °F 48 °F 60 °F (2012)
Min Temperature 31 °F 36 °F 26 °F (2003)
Degree Days  
Heating Degree Days 25    
Moisture  
Dew Point 34 °F    
Average Humidity 79    
Maximum Humidity 93    
Minimum Humidity 55    
Precipitation  
Precipitation 0.00 in 0.18 in - ()
Sea Level Pressure  
Sea Level Pressure 29.94 in    
Wind  
Wind Speed 5 mph ()    
Max Wind Speed 9 mph    
Max Gust Speed -    
Visibility 19.9 miles    
Events      
Averages and records for this station are not official NWS values.
T = Trace of Precipitation, MM = Missing Value Source: Averaged Metar Reports

Daily Weather History Graph

Daily Weather History Graph

Search for Another Location

Airport or City:

Trip Planner

Search our weather history database for the weather conditions in past years. The results will help you decide how hot, cold, wet, or windy it might be!

Date:

Astronomy

Nov. 04, 2011 Rise Set
Actual Time 8:04 AM PDT 5:49 PM PDT
Civil Twilight 7:31 AM PDT 6:22 PM PDT
Nautical Twilight 6:54 AM PDT 6:59 PM PDT
Astronomical Twilight 6:17 AM PDT 7:36 PM PDT
Moon 3:06 PM PDT (11/4) 1:55 AM PDT (11/4)
Length of Visible Light 10h 51m
Length of Day
9h 44m
Waxing Gibbous, 70% of the Moon is Illuminated
Nov 4
Waxing Gibbous
Nov 10
Full
Nov 18
Last Quarter
Nov 24
New
Dec 2
First Quarter

Hourly Weather History & Observations

Time (PDT) Temp. Windchill Dew Point Humidity Pressure Visibility Wind Dir Wind Speed Gust Speed Precip Events Conditions
12:00 AM 35.6 °F 32.8 °F 33.8 °F 93% 29.94 in 20.0 mi West 3.5 mph - N/A   Partly Cloudy
1:00 AM 37.4 °F 31.4 °F 35.6 °F 93% 29.94 in 20.0 mi West 8.1 mph - N/A   Partly Cloudy
2:00 AM 33.8 °F 28.6 °F 32.0 °F 93% 29.94 in 20.0 mi West 5.8 mph - N/A   Partly Cloudy
3:00 AM 35.6 °F 30.7 °F 33.8 °F 93% 29.94 in 20.0 mi West 5.8 mph - N/A   Partly Cloudy
4:00 AM 35.6 °F 31.7 °F 33.8 °F 93% 29.95 in 20.0 mi West 4.6 mph - N/A   Mostly Cloudy
5:00 AM 35 °F - 32 °F 85% 29.94 in 19 mi West 8.1 mph - -   Scattered Clouds
5:00 AM 35.6 °F 28.6 °F 32.0 °F 87% 29.94 in 20.0 mi West 9.2 mph - N/A   Partly Cloudy
7:00 AM 33.8 °F 27.7 °F 32.0 °F 93% 29.96 in 20.0 mi WSW 6.9 mph - N/A   Partly Cloudy
8:00 AM 32.0 °F 25.6 °F 30.2 °F 93% 29.96 in 30.0 mi WNW 6.9 mph - N/A   Partly Cloudy
9:00 AM 35.6 °F 31.7 °F 33.8 °F 93% 29.96 in 30.0 mi WSW 4.6 mph - N/A   Partly Cloudy
10:00 AM 39.2 °F 33.6 °F 33.8 °F 81% 29.97 in 30.0 mi West 8.1 mph - N/A   Partly Cloudy
11:00 AM 43 °F - 34 °F 60% 29.98 in 28 mi WNW 6.9 mph - -   Scattered Clouds
11:00 AM 42.8 °F 39.3 °F 33.8 °F 70% 29.98 in 30.0 mi WNW 5.8 mph - N/A   Mostly Cloudy
12:00 PM 44.6 °F 41.4 °F 35.6 °F 71% 29.97 in 30.0 mi WSW 5.8 mph - N/A   Mostly Cloudy
1:00 PM 46.4 °F 43.5 °F 35.6 °F 66% 29.96 in 30.0 mi WSW 5.8 mph - N/A   Mostly Cloudy
2:00 PM 46.4 °F 45.2 °F 35.6 °F 66% 29.94 in 30.0 mi SW 3.5 mph - N/A   Mostly Cloudy
3:00 PM 48.2 °F - 35.6 °F 62% 29.93 in 30.0 mi ENE 2.3 mph - N/A   Mostly Cloudy
4:00 PM 48.2 °F - 35.6 °F 62% 29.92 in 30.0 mi SE 5.8 mph - N/A   Mostly Cloudy
5:00 PM 46 °F - 35 °F 55% 29.92 in 28 mi SE 6.9 mph - -   Scattered Clouds
5:00 PM 46.4 °F 42.9 °F 35.6 °F 66% 29.92 in 30.0 mi SE 6.9 mph - N/A   Mostly Cloudy
6:00 PM 44.6 °F 42.2 °F 35.6 °F 71% 29.92 in 30.0 mi SE 4.6 mph - N/A   Scattered Clouds
7:00 PM 42.8 °F 39.3 °F 33.8 °F 70% 29.92 in 30.0 mi SE 5.8 mph - N/A   Mostly Cloudy
8:00 PM 42.8 °F 38.6 °F 35.6 °F 76% 29.91 in 30.0 mi SE 6.9 mph - N/A   Scattered Clouds
9:00 PM 42.8 °F 38.6 °F 35.6 °F 76% 29.90 in 30.0 mi SSE 6.9 mph - N/A   Mostly Cloudy
10:00 PM 39.2 °F - 35.6 °F 87% 29.90 in 30.0 mi Calm Calm - N/A   Mostly Cloudy
11:00 PM 37 °F - 34 °F 85% 29.88 in 28 mi NW 2.3 mph - -   Partly Cloudy
11:00 PM 37.4 °F - 33.8 °F 87% 29.88 in 30.0 mi NW 2.3 mph - N/A   Mostly Cloudy
11:15 PM 35.6 °F 32.8 °F - N/A% - 30.0 mi West 3.5 mph - N/A   Mostly Cloudy